Time,TemperatureF,DewpointF,PressureIn,WindDirection,WindDirectionDegrees,WindSpeedMPH,WindSpeedGustMPH,Humidity,HourlyPrecipIn,Conditions,Clouds,dailyrainin,SoftwareType,DateUTC
2013-02-22 08:45:00,33.4,32.4,29.92,SSW,199,0.0,0.0,96,0.00,,,0.00,Wunderground v.1.15,2013-02-22 13:45:00,
2013-02-22 08:50:00,33.3,32.3,29.92,SSW,198,0.0,0.0,96,0.00,,,0.00,Wunderground v.1.15,2013-02-22 13:50:00,
2013-02-22 08:55:00,33.3,32.3,29.92,SSW,198,0.0,0.0,96,0.00,,,0.00,Wunderground v.1.15,2013-02-22 13:55:00,
2013-02-22 09:00:00,33.2,32.2,29.93,SSW,198,0.0,0.0,96,0.00,,,0.00,Wunderground v.1.15,2013-02-22 14:00:00,
2013-02-22 09:10:00,33.2,32.2,29.93,SSW,198,0.0,0.0,96,0.00,,,0.00,Wunderground v.1.15,2013-02-22 14:10:00,
2013-02-22 09:20:00,33.2,32.2,29.93,SSW,198,0.0,0.0,96,0.00,,,0.00,Wunderground v.1.15,2013-02-22 14:20:00,
2013-02-22 09:25:00,33.2,32.2,29.92,SSW,198,0.0,0.0,96,0.00,,,0.00,Wunderground v.1.15,2013-02-22 14:25:00,
2013-02-22 09:35:00,33.4,32.6,29.92,SSW,198,0.0,2.0,97,0.00,,,0.00,Wunderground v.1.15,2013-02-22 14:35:00,
2013-02-22 09:45:00,33.4,32.4,29.92,SSW,198,0.0,2.0,96,0.00,,,0.00,Wunderground v.1.15,2013-02-22 14:45:00,
2013-02-22 09:55:00,33.6,32.8,29.92,SSW,199,0.0,2.0,97,0.00,,,0.00,Wunderground v.1.15,2013-02-22 14:55:00,
2013-02-22 10:05:00,33.8,33.0,29.93,SSW,198,0.0,2.0,97,0.00,,,0.00,Wunderground v.1.15,2013-02-22 15:05:00,
2013-02-22 10:10:00,33.9,33.1,29.93,SSW,198,0.0,2.0,97,0.00,,,0.00,Wunderground v.1.15,2013-02-22 15:10:00,
2013-02-22 10:20:00,34.9,34.1,29.92,SW,220,0.0,2.0,97,0.00,,,0.00,Wunderground v.1.15,2013-02-22 15:20:00,
2013-02-22 10:30:00,35.8,35.3,29.92,SW,231,0.0,2.0,98,0.00,,,0.00,Wunderground v.1.15,2013-02-22 15:30:00,
2013-02-22 10:35:00,36.3,35.8,29.93,SW,233,0.0,2.0,98,0.00,,,0.00,Wunderground v.1.15,2013-02-22 15:35:00,
2013-02-22 10:45:00,37.1,36.6,29.93,SSW,194,1.0,3.0,98,0.00,,,0.00,Wunderground v.1.15,2013-02-22 15:45:00,
2013-02-22 10:50:00,37.6,37.1,29.93,SSW,200,1.0,2.0,98,0.00,,,0.00,Wunderground v.1.15,2013-02-22 15:50:00,
2013-02-22 11:00:00,38.2,37.4,29.93,SSW,203,2.0,2.0,97,0.00,,,0.00,Wunderground v.1.15,2013-02-22 16:00:00,
2013-02-22 11:05:00,38.4,37.4,29.93,SW,219,1.0,2.0,96,0.00,,,0.01,Wunderground v.1.15,2013-02-22 16:05:00,
2013-02-22 11:10:00,38.6,37.6,29.93,WSW,243,1.0,1.0,96,0.00,,,0.01,Wunderground v.1.15,2013-02-22 16:10:00,
2013-02-22 11:15:00,38.6,37.3,29.94,SSW,203,1.0,2.0,95,0.00,,,0.01,Wunderground v.1.15,2013-02-22 16:15:00,
2013-02-22 11:20:00,38.4,36.8,29.94,SSW,205,2.0,2.0,94,0.00,,,0.01,Wunderground v.1.15,2013-02-22 16:20:00,
2013-02-22 11:30:00,38.7,37.4,29.94,SSW,203,1.0,1.0,95,0.00,,,0.01,Wunderground v.1.15,2013-02-22 16:30:00,
2013-02-22 11:40:00,39.1,37.5,29.94,SSW,213,1.0,2.0,94,0.00,,,0.02,Wunderground v.1.15,2013-02-22 16:40:00,
2013-02-22 11:45:00,39.2,37.6,29.94,SW,215,1.0,2.0,94,0.00,,,0.02,Wunderground v.1.15,2013-02-22 16:45:00,
2013-02-22 11:50:00,39.3,37.7,29.94,SW,222,1.0,1.0,94,0.00,,,0.02,Wunderground v.1.15,2013-02-22 16:50:00,
2013-02-22 11:55:00,39.6,38.3,29.95,SW,221,0.0,2.0,95,0.00,,,0.02,Wunderground v.1.15,2013-02-22 16:55:00,
2013-02-22 12:00:00,39.7,38.4,29.95,SSE,147,0.0,2.0,95,0.00,,,0.02,Wunderground v.1.15,2013-02-22 17:00:00,
2013-02-22 12:10:00,41.5,40.4,29.95,SW,222,2.0,3.0,96,0.00,,,0.02,Wunderground v.1.15,2013-02-22 17:10:00,
2013-02-22 12:15:00,42.3,40.7,29.95,SW,214,2.0,3.0,94,0.00,,,0.03,Wunderground v.1.15,2013-02-22 17:15:00,
2013-02-22 12:25:00,43.6,41.4,29.95,WSW,255,2.0,5.0,92,0.00,,,0.03,Wunderground v.1.15,2013-02-22 17:25:00,
2013-02-22 12:35:00,43.8,40.8,29.95,West,271,4.0,4.0,89,0.00,,,0.03,Wunderground v.1.15,2013-02-22 17:35:00,
2013-02-22 12:45:00,44.3,40.7,29.95,SW,221,4.0,4.0,87,0.00,,,0.03,Wunderground v.1.15,2013-02-22 17:45:00,
2013-02-22 12:55:00,44.7,41.1,29.95,South,188,4.0,5.0,87,0.00,,,0.03,Wunderground v.1.15,2013-02-22 17:55:00,
2013-02-22 13:00:00,44.9,41.0,29.95,SSW,200,4.0,4.0,86,0.00,,,0.03,Wunderground v.1.15,2013-02-22 18:00:00,
2013-02-22 13:10:00,45.6,41.7,29.94,SSW,198,5.0,6.0,86,0.00,,,0.03,Wunderground v.1.15,2013-02-22 18:10:00,
2013-02-22 13:15:00,46.2,41.9,29.95,South,181,5.0,10.0,85,0.00,,,0.03,Wunderground v.1.15,2013-02-22 18:15:00,
2013-02-22 13:25:00,46.1,41.2,29.95,South,183,5.0,10.0,83,0.00,,,0.03,Wunderground v.1.15,2013-02-22 18:25:00,
2013-02-22 13:35:00,46.3,41.4,29.94,SW,219,3.0,9.0,83,0.00,,,0.03,Wunderground v.1.15,2013-02-22 18:35:00,
2013-02-22 13:45:00,46.8,41.3,29.94,ESE,117,5.0,5.0,81,0.00,,,0.03,Wunderground v.1.15,2013-02-22 18:45:00,
2013-02-22 13:55:00,46.8,41.3,29.94,South,190,3.0,4.0,81,0.00,,,0.03,Wunderground v.1.15,2013-02-22 18:55:00,
2013-02-22 14:00:00,46.7,41.5,29.94,SSE,154,3.0,3.0,82,0.00,,,0.03,Wunderground v.1.15,2013-02-22 19:00:00,
2013-02-22 14:10:00,46.4,40.9,29.94,SSE,155,1.0,1.0,81,0.00,,,0.03,Wunderground v.1.15,2013-02-22 19:10:00,
2013-02-22 14:20:00,46.4,40.9,29.94,South,179,3.0,6.0,81,0.00,,,0.03,Wunderground v.1.15,2013-02-22 19:20:00,
2013-02-22 14:30:00,46.6,41.1,29.94,SSE,159,4.0,4.0,81,0.00,,,0.03,Wunderground v.1.15,2013-02-22 19:30:00,
2013-02-22 14:40:00,47.0,41.5,29.94,South,175,3.0,4.0,81,0.00,,,0.03,Wunderground v.1.15,2013-02-22 19:40:00,
2013-02-22 14:45:00,47.3,41.4,29.93,SE,139,3.0,4.0,80,0.00,,,0.03,Wunderground v.1.15,2013-02-22 19:45:00,
2013-02-22 14:55:00,47.8,41.9,29.93,SSE,158,2.0,2.0,80,0.00,,,0.03,Wunderground v.1.15,2013-02-22 19:55:00,
2013-02-22 15:05:00,48.1,41.9,29.93,SSW,198,3.0,3.0,79,0.00,,,0.03,Wunderground v.1.15,2013-02-22 20:05:00,
2013-02-22 15:15:00,47.6,41.4,29.93,SSE,148,3.0,5.0,79,0.00,,,0.03,Wunderground v.1.15,2013-02-22 20:15:00,
2013-02-22 15:25:00,47.6,41.4,29.93,South,180,1.0,2.0,79,0.00,,,0.03,Wunderground v.1.15,2013-02-22 20:25:00,
2013-02-22 15:30:00,47.6,41.7,29.93,East,86,1.0,2.0,80,0.00,,,0.03,Wunderground v.1.15,2013-02-22 20:30:00,
2013-02-22 15:40:00,-999.9,-99.9,29.94,SSE,159,2.0,3.0,255,0.00,,,0.03,Wunderground v.1.15,2013-02-22 20:40:00,
2013-02-22 15:50:00,47.1,41.2,29.93,SSW,200,2.0,3.0,80,0.00,,,0.03,Wunderground v.1.15,2013-02-22 20:50:00,
2013-02-22 16:00:00,47.4,41.2,29.93,SW,223,2.0,2.0,79,0.00,,,0.03,Wunderground v.1.15,2013-02-22 21:00:00,
2013-02-22 16:10:00,47.4,41.5,29.93,ESE,117,1.0,1.0,80,0.00,,,0.03,Wunderground v.1.15,2013-02-22 21:10:00,
2013-02-22 16:20:00,47.3,41.1,29.93,SSE,161,1.0,2.0,79,0.00,,,0.03,Wunderground v.1.15,2013-02-22 21:20:00,
2013-02-22 16:30:00,47.1,41.2,29.93,South,191,2.0,2.0,80,0.00,,,0.03,Wunderground v.1.15,2013-02-22 21:30:00,
2013-02-22 16:40:00,47.0,41.1,29.93,SSE,158,0.0,2.0,80,0.00,,,0.03,Wunderground v.1.15,2013-02-22 21:40:00,
2013-02-22 16:50:00,46.8,41.0,29.93,ESE,117,0.0,2.0,80,0.00,,,0.03,Wunderground v.1.15,2013-02-22 21:50:00,
2013-02-22 17:00:00,46.4,41.2,29.93,SW,226,0.0,2.0,82,0.00,,,0.03,Wunderground v.1.15,2013-02-22 22:00:00,
2013-02-22 17:10:00,46.2,41.3,29.93,SE,132,0.0,2.0,83,0.00,,,0.03,Wunderground v.1.15,2013-02-22 22:10:00,
2013-02-22 17:20:00,46.1,42.1,29.93,SW,215,0.0,2.0,86,0.00,,,0.03,Wunderground v.1.15,2013-02-22 22:20:00,
2013-02-22 17:30:00,45.6,41.4,29.93,SSW,205,0.0,2.0,85,0.00,,,0.03,Wunderground v.1.15,2013-02-22 22:30:00,
2013-02-22 17:40:00,45.1,42.1,29.94,WSW,245,0.0,2.0,89,0.00,,,0.03,Wunderground v.1.15,2013-02-22 22:40:00,
2013-02-22 17:45:00,44.7,41.7,29.94,East,86,0.0,2.0,89,0.00,,,0.03,Wunderground v.1.15,2013-02-22 22:45:00,
2013-02-22 17:55:00,44.9,41.3,29.94,SE,145,0.0,2.0,87,0.00,,,0.03,Wunderground v.1.15,2013-02-22 22:55:00,
2013-02-22 18:05:00,44.5,40.6,29.95,ESE,105,0.0,2.0,86,0.00,,,0.03,Wunderground v.1.15,2013-02-22 23:05:00,
2013-02-22 18:10:00,44.7,40.2,29.95,ESE,119,1.0,1.0,84,0.00,,,0.03,Wunderground v.1.15,2013-02-22 23:10:00,
2013-02-22 18:20:00,44.3,40.7,29.95,West,263,0.0,2.0,87,0.00,,,0.03,Wunderground v.1.15,2013-02-22 23:20:00,
2013-02-22 18:25:00,43.6,40.3,29.95,WNW,284,0.0,2.0,88,0.00,,,0.03,Wunderground v.1.15,2013-02-22 23:25:00,
2013-02-22 18:35:00,41.9,38.9,29.95,WNW,289,0.0,2.0,89,0.00,,,0.03,Wunderground v.1.15,2013-02-22 23:35:00,
2013-02-22 18:45:00,40.6,38.2,29.95,WNW,287,1.0,2.0,91,0.00,,,0.03,Wunderground v.1.15,2013-02-22 23:45:00,
2013-02-22 18:55:00,39.7,37.6,29.95,WNW,291,1.0,2.0,92,0.00,,,0.03,Wunderground v.1.15,2013-02-22 23:55:00,
2013-02-22 19:00:00,39.4,37.5,29.96,WNW,290,1.0,1.0,93,0.00,,,0.03,Wunderground v.1.15,2013-02-23 00:00:00,
2013-02-22 19:10:00,38.7,36.9,29.96,WNW,290,0.0,2.0,93,0.00,,,0.03,Wunderground v.1.15,2013-02-23 00:10:00,
2013-02-22 19:20:00,38.0,36.4,29.96,WNW,290,0.0,2.0,94,0.00,,,0.03,Wunderground v.1.15,2013-02-23 00:20:00,
2013-02-22 19:30:00,37.4,35.8,29.96,WNW,290,0.0,2.0,94,0.00,,,0.03,Wunderground v.1.15,2013-02-23 00:30:00,
2013-02-22 19:40:00,36.7,35.1,29.96,WNW,289,0.0,2.0,94,0.00,,,0.03,Wunderground v.1.15,2013-02-23 00:40:00,
2013-02-22 19:45:00,36.4,34.8,29.97,WNW,290,0.0,2.0,94,0.00,,,0.03,Wunderground v.1.15,2013-02-23 00:45:00,
2013-02-22 19:55:00,35.7,34.4,29.97,WNW,290,0.0,2.0,95,0.00,,,0.03,Wunderground v.1.15,2013-02-23 00:55:00,
2013-02-22 20:05:00,35.2,33.9,29.97,WNW,290,0.0,2.0,95,0.00,,,0.03,Wunderground v.1.15,2013-02-23 01:05:00,
2013-02-22 20:10:00,34.9,33.6,29.97,WNW,290,0.0,2.0,95,0.00,,,0.03,Wunderground v.1.15,2013-02-23 01:10:00,
2013-02-22 20:20:00,34.5,33.2,29.97,WNW,290,0.0,2.0,95,0.00,,,0.03,Wunderground v.1.15,2013-02-23 01:20:00,
2013-02-22 20:30:00,33.7,32.4,29.97,WNW,290,0.0,2.0,95,0.00,,,0.03,Wunderground v.1.15,2013-02-23 01:30:00,
2013-02-22 20:40:00,33.5,32.2,29.97,WNW,290,0.0,2.0,95,0.00,,,0.03,Wunderground v.1.15,2013-02-23 01:40:00,
2013-02-22 20:50:00,33.1,31.8,29.97,WNW,290,0.0,2.0,95,0.00,,,0.03,Wunderground v.1.15,2013-02-23 01:50:00,
2013-02-22 21:00:00,32.9,31.9,29.97,WNW,289,0.0,2.0,96,0.00,,,0.03,Wunderground v.1.15,2013-02-23 02:00:00,
2013-02-22 21:10:00,32.7,31.7,29.97,WNW,290,0.0,2.0,96,0.00,,,0.03,Wunderground v.1.15,2013-02-23 02:10:00,
2013-02-22 21:20:00,32.4,31.4,29.97,WNW,290,0.0,2.0,96,0.00,,,0.03,Wunderground v.1.15,2013-02-23 02:20:00,
2013-02-22 21:25:00,32.4,31.4,29.97,WNW,290,0.0,2.0,96,0.00,,,0.03,Wunderground v.1.15,2013-02-23 02:25:00,
2013-02-22 21:35:00,32.2,31.2,29.98,WNW,290,0.0,2.0,96,0.00,,,0.03,Wunderground v.1.15,2013-02-23 02:35:00,
2013-02-22 21:45:00,32.0,31.0,29.98,WNW,289,0.0,2.0,96,0.00,,,0.03,Wunderground v.1.15,2013-02-23 02:45:00,
2013-02-22 21:55:00,31.7,30.7,29.98,WNW,290,0.0,2.0,96,0.00,,,0.03,Wunderground v.1.15,2013-02-23 02:55:00,
2013-02-22 22:00:00,31.6,30.6,29.99,WNW,290,0.0,2.0,96,0.00,,,0.03,Wunderground v.1.15,2013-02-23 03:00:00,
2013-02-22 22:10:00,31.9,31.1,29.99,WNW,289,0.0,2.0,97,0.00,,,0.03,Wunderground v.1.15,2013-02-23 03:10:00,
2013-02-22 22:20:00,32.4,31.6,29.99,WNW,290,0.0,2.0,97,0.00,,,0.03,Wunderground v.1.15,2013-02-23 03:20:00,
2013-02-22 22:30:00,32.7,31.9,29.99,West,278,0.0,2.0,97,0.00,,,0.03,Wunderground v.1.15,2013-02-23 03:30:00,
2013-02-22 22:40:00,32.8,32.0,29.99,West,278,0.0,2.0,97,0.00,,,0.03,Wunderground v.1.15,2013-02-23 03:40:00,
2013-02-22 22:50:00,32.7,31.9,29.99,North,6,0.0,2.0,97,0.00,,,0.03,Wunderground v.1.15,2013-02-23 03:50:00,
2013-02-22 22:55:00,32.6,31.8,29.99,North,6,0.0,2.0,97,0.00,,,0.03,Wunderground v.1.15,2013-02-23 03:55:00,
2013-02-22 23:05:00,32.3,31.5,29.99,North,6,0.0,2.0,97,0.00,,,0.03,Wunderground v.1.15,2013-02-23 04:05:00,
2013-02-22 23:10:00,32.2,31.4,29.99,North,6,0.0,2.0,97,0.00,,,0.03,Wunderground v.1.15,2013-02-23 04:10:00,
2013-02-22 23:20:00,32.0,31.2,29.99,North,6,0.0,2.0,97,0.00,,,0.03,Wunderground v.1.15,2013-02-23 04:20:00,
2013-02-22 23:30:00,32.1,31.3,29.99,North,6,0.0,2.0,97,0.00,,,0.03,Wunderground v.1.15,2013-02-23 04:30:00,
2013-02-22 23:35:00,32.1,31.3,29.99,North,6,0.0,2.0,97,0.00,,,0.03,Wunderground v.1.15,2013-02-23 04:35:00,
2013-02-22 23:45:00,31.8,31.0,29.99,North,6,0.0,2.0,97,0.00,,,0.03,Wunderground v.1.15,2013-02-23 04:45:00,
2013-02-22 23:55:00,31.7,30.9,29.98,North,6,0.0,2.0,97,0.00,,,0.03,Wunderground v.1.15,2013-02-23 04:55:00,